Weather Roundup
Issued by NWS Springfield, MO

Home | Current Version | Previous Version | Text Only | Print | Product List | Glossary On
Versions: 1 2 3 4 5 6 7 8 9 10 11 12 13 14 15 16 17 18 19 20 21 22 23 24 25 26 27 28 29 30 31 32 33 34 35 36 37 38 39 40 41 42 43 44 45 46 47 48 49 50
000
NZUS99 KSGF 220757
HRRSGF

HOURLY WEATHER
NATIONAL WEATHER SERVICE SPRINGFIELD MO
200 AM CST MON JAN 22 2018

......SGF CWA......

CITY           SKY/WX    TMP DP  RH WIND       PRES   REMARKS
SPRINGFIELD    CLOUDY    54  53  97 S10       29.60R
JOPLIN         CLOUDY    52  31  44 SW13      29.59F
WEST PLAINS    RAIN      56  54  93 SW12G29   29.65R FOG
ROLLA          RAIN      54  54 100 S13       29.61F

......SURROUNDING SGF CWA......

CITY           SKY/WX    TMP DP  RH WIND       PRES   REMARKS
CHANUTE        CLEAR     42  37  82 W8        29.55S
PARSONS        CLEAR     46  36  68 W12       29.59R
COFFEYVILLE    CLEAR     47  35  63 W14       29.60R
EMPORIA        CLEAR     34  32  92 SW7       29.52F WCI  28
HARRISON AR    CLOUDY    53  45  74 W13       29.66S

......KANSAS AND MISSOURI......

CITY           SKY/WX    TMP DP  RH WIND       PRES   REMARKS
KANSAS CTY INT CLOUDY    47  46  97 E12       29.43F
DOWNTOWN KC    MOCLDY    49  46  90 NE3       29.45F
SEDALIA        CLOUDY    57  56  96 S12       29.53F
ST JOSEPH      CLOUDY    44  44 100 E9        29.43F
ST LOUIS       LGT RAIN  58  53  84 SE20G32   29.61F
WICHITA        MOCLDY    34  31  88 SW14      29.55F WCI  25
TOPEKA         MOCLDY    42  41  96 W5        29.47S
OLATHE         CLOUDY    47  47 100 CALM      29.46F

......TENNESSEE......

CITY           SKY/WX    TMP DP  RH WIND       PRES   REMARKS
MEMPHIS        NOT AVBL
NASHVILLE      CLOUDY    58  43  57 S10       29.98F

......ARKANSAS.......

CITY           SKY/WX    TMP DP  RH WIND       PRES   REMARKS
FAYETTEVILLE   PTCLDY    49  37  63 SW8       29.67S
FT SMITH       CLEAR     53  41  63 SW8       29.70R
LITTLE ROCK    TSTM      53  51  93 W25G53    29.78R SQUALL  VSB 1

......OKLAHOMA.......

CITY           SKY/WX    TMP DP  RH WIND       PRES   REMARKS
TULSA          PTCLDY    47  31  53 W18G25    29.67R
PONCA CITY     CLEAR     39  28  64 SW14G22   29.64F WCI  31
MCALESTER      MOCLDY    53  22  29 SW13      29.74R
OKLAHOMA CITY  PTCLDY    39  26  59 W21G29    29.76R WCI  29

......IOWA............

CITY           SKY/WX    TMP DP  RH WIND       PRES   REMARKS
DES MOINES     NOT AVBL
QUAD CITIES    LGT RAIN  52  51  97 SE6       29.62F

......ILLINOIS........

CITY           SKY/WX    TMP DP  RH WIND       PRES   REMARKS
QUINCY         LGT RAIN  51  51 100 SE7       29.60F
CHICAGO        FOG       46  45  96 SE9       29.76F VSB 1/8




USA.gov is the U.S. government's official web portal to all federal, state and local government web resources and services.